Pittsfield, MA

7:31 AM EST on February 26, 2017 (GMT -0500)
Pittsfield Municipal

Weather History for KPSF - February, 2013

Change the Weather History Date:

Saturday, February 9, 2013

  Actual Average Record
Temperature  
Mean Temperature 17 °F 22 °F  
Max Temperature 22 °F 31 °F 53 °F (1933)
Min Temperature 11 °F 14 °F -23 °F (1934)
Degree Days  
Heating Degree Days 48 43  
Month to date heating degree days 408 391  
Since 1 July heating degree days 4224 4616  
Cooling Degree Days 0 0  
Month to date cooling degree days 0 0  
Year to date cooling degree days 0 0  
Moisture  
Dew Point 6 °F    
Average Humidity 64    
Maximum Humidity 91    
Minimum Humidity 36    
Precipitation  
Precipitation 0.29 in 0.10 in 0.55 in (1950)
Month to date precipitation 0.48 0.77  
Year to date precipitation 2.75 3.69  
Sea Level Pressure  
Sea Level Pressure 29.92 in    
Wind  
Wind Speed 14 mph (NW)    
Max Wind Speed 26 mph    
Max Gust Speed 38 mph    
Visibility 4 miles    
Events Fog , Snow    
T = Trace of Precipitation, MM = Missing Value Source: NWS Daily Summary

Daily Weather History Graph

Daily Weather History Graph

Search for Another Location

Airport or City:

Trip Planner

Search our weather history database for the weather conditions in past years. The results will help you decide how hot, cold, wet, or windy it might be!

Date:

Astronomy

Feb. 09, 2013 Rise Set
Actual Time 6:57 AM EST 5:17 PM EST
Civil Twilight 6:28 AM EST 5:47 PM EST
Nautical Twilight 5:55 AM EST 6:20 PM EST
Astronomical Twilight 5:22 AM EST 6:53 PM EST
Moon 6:07 AM EST (2/9) 4:58 PM EST (2/9)
Length of Visible Light 11h 18m
Length of Day
10h 20m
Waning Crescent, 0% of the Moon is Illuminated
Feb 9
Waning Crescent
Feb 10
New
Feb 17
First Quarter
Feb 25
Full
Mar 4
Last Quarter

Hourly Weather History & Observations

Time (EST) Temp. Windchill Dew Point Humidity Pressure Visibility Wind Dir Wind Speed Gust Speed Precip Events Conditions
12:16 AM 19.4 °F 14.3 °F 17.6 °F 93% 29.73 in 0.2 mi North 3.5 mph - 0.05 in Fog , Snow Snow
12:54 AM 19.0 °F 8.2 °F 17.1 °F 92% 29.78 in 0.2 mi North 9.2 mph - 0.15 in Fog , Snow Snow
1:03 AM 19.4 °F 10.4 °F 17.6 °F 93% 29.72 in 0.5 mi NNW 6.9 mph - 0.02 in Fog , Snow Snow
1:21 AM 19.4 °F 11.5 °F 17.6 °F 93% 29.72 in 0.2 mi NW 5.8 mph - 0.06 in Fog , Snow Heavy Snow
1:32 AM 19.4 °F 7.9 °F 17.6 °F 93% 29.73 in 0.5 mi NNW 10.4 mph - 0.08 in Fog , Snow Snow
1:46 AM 19.4 °F 8.6 °F 15.8 °F 86% 29.73 in 0.5 mi NW 9.2 mph - 0.09 in Fog , Snow Snow
1:54 AM 19.0 °F 8.2 °F 16.0 °F 88% 29.79 in 0.8 mi NNW 9.2 mph - 0.09 in Snow Light Snow
2:54 AM 19.0 °F 6.8 °F 16.0 °F 88% 29.79 in 0.5 mi NW 11.5 mph 24.2 mph 0.04 in Fog , Snow Snow
3:54 AM 18.0 °F 4.2 °F 14.0 °F 84% 29.80 in 0.8 mi NNW 13.8 mph 20.7 mph 0.01 in Snow Light Snow
4:26 AM 17.6 °F 5.0 °F 12.2 °F 79% 29.74 in 0.8 mi NW 11.5 mph 23.0 mph 0.01 in Snow Light Snow
4:33 AM 17.6 °F 5.7 °F 12.2 °F 79% 29.74 in 1.0 mi NW 10.4 mph 19.6 mph 0.01 in Snow Light Snow
4:52 AM 17.6 °F 3.2 °F 12.2 °F 79% 29.75 in 1.2 mi NW 15.0 mph 21.9 mph 0.01 in Snow Light Snow
4:54 AM 17.1 °F 3.6 °F 12.0 °F 81% 29.81 in 1.5 mi NW 12.7 mph 21.9 mph 0.01 in Snow Light Snow
5:22 AM 15.8 °F 4.2 °F 10.4 °F 79% 29.76 in 2.5 mi NNW 9.2 mph 20.7 mph 0.00 in Snow Light Snow
5:29 AM 15.8 °F 2.7 °F 10.4 °F 79% 29.76 in 3.0 mi NNW 11.5 mph 24.2 mph 0.00 in Snow Light Snow
5:42 AM 15.8 °F -1.1 °F 8.6 °F 73% 29.77 in 2.0 mi NW 19.6 mph 29.9 mph 0.00 in Snow Light Snow
5:51 AM 14.0 °F -2.0 °F 8.6 °F 79% 29.77 in 1.5 mi NNW 16.1 mph 33.4 mph 0.00 in Snow Light Snow
5:54 AM 14.0 °F -2.0 °F 9.0 °F 80% 29.84 in 1.5 mi NNW 16.1 mph 33.4 mph 0.00 in Snow Light Snow
6:25 AM 12.2 °F -4.8 °F 6.8 °F 79% 29.78 in 2.5 mi NW 17.3 mph 28.8 mph 0.00 in Snow Light Snow
6:30 AM 12.2 °F -4.8 °F 6.8 °F 79% 29.79 in 3.0 mi NW 17.3 mph 28.8 mph 0.00 in Snow Light Snow
6:54 AM 12.9 °F -5.3 °F 6.1 °F 74% 29.88 in 3.0 mi NW 20.7 mph 29.9 mph 0.00 in Snow Light Snow
7:02 AM 12.2 °F -5.8 °F 6.8 °F 79% 29.81 in 3.0 mi NW 19.6 mph 31.1 mph 0.00 in Snow Light Snow
7:35 AM 12.2 °F -3.7 °F 6.8 °F 79% 29.84 in 5.0 mi NNW 15.0 mph 26.5 mph 0.00 in   Haze
7:54 AM 12.0 °F -6.0 °F 5.0 °F 73% 29.93 in 3.0 mi NNW 19.6 mph 29.9 mph 0.00 in Snow Light Snow
8:07 AM 12.2 °F -3.7 °F 5.0 °F 73% 29.86 in 1.2 mi NW 15.0 mph 24.2 mph 0.00 in Snow Light Snow
8:19 AM 12.2 °F -4.3 °F 3.2 °F 67% 29.87 in 3.0 mi NNW 16.1 mph 36.8 mph 0.00 in   Overcast
8:54 AM 10.9 °F -4.1 °F 3.9 °F 73% 29.97 in 4.0 mi NNW 12.7 mph 31.1 mph 0.00 in   Overcast
9:07 AM 10.4 °F -6.0 °F 3.2 °F 73% 29.90 in 2.5 mi NNW 15.0 mph 26.5 mph 0.00 in   Haze
9:14 AM 10.4 °F -7.2 °F 3.2 °F 73% 29.90 in 3.0 mi North 17.3 mph 28.8 mph 0.00 in   Overcast
9:44 AM 10.4 °F -6.6 °F 3.2 °F 73% 29.91 in 1.8 mi NW 16.1 mph 34.5 mph 0.00 in Snow Blowing Snow
9:49 AM 10.4 °F -7.7 °F 3.2 °F 73% 29.91 in 3.0 mi NW 18.4 mph 35.7 mph 0.00 in Snow Blowing Snow
9:54 AM 10.9 °F -8.8 °F 3.0 °F 70% 29.99 in 4.0 mi NNW 23.0 mph 35.7 mph 0.00 in Snow Blowing Snow
10:07 AM 10.4 °F -9.5 °F 1.4 °F 67% 29.92 in 2.0 mi NNW 23.0 mph 35.7 mph N/A Snow Blowing Snow
10:18 AM 10.4 °F -9.1 °F 1.4 °F 67% 29.93 in 5.0 mi NNW 21.9 mph 32.2 mph N/A Snow Blowing Snow
10:46 AM 12.2 °F -7.1 °F 1.4 °F 62% 29.95 in 4.0 mi NNW 23.0 mph 38.0 mph N/A Snow Blowing Snow
10:54 AM 12.9 °F -3.9 °F 1.9 °F 62% 30.02 in 4.0 mi NNW 17.3 mph 38.0 mph N/A Snow Blowing Snow
11:54 AM 12.9 °F -1.6 °F -0.0 °F 56% 30.03 in 10.0 mi NW 12.7 mph 25.3 mph N/A   Mostly Cloudy
12:54 PM 17.1 °F 1.5 °F -0.9 °F 45% 30.04 in 10.0 mi NNW 17.3 mph 29.9 mph N/A   Clear
1:54 PM 19.0 °F 5.0 °F -2.9 °F 38% 30.06 in 10.0 mi NNW 15.0 mph 23.0 mph N/A   Clear
2:54 PM 21.0 °F 8.6 °F -2.9 °F 35% 30.07 in 10.0 mi NNW 12.7 mph 31.1 mph N/A   Clear
3:54 PM 21.0 °F 8.6 °F -2.0 °F 36% 30.09 in 10.0 mi NW 12.7 mph 20.7 mph N/A   Clear
4:54 PM 19.9 °F 6.2 °F -2.0 °F 38% 30.12 in 9.0 mi NW 15.0 mph 25.3 mph N/A   Clear
5:54 PM 18.0 °F 9.8 °F -2.0 °F 41% 30.17 in 10.0 mi NW 5.8 mph - N/A   Clear
6:54 PM 15.1 °F 0.5 °F -2.0 °F 47% 30.22 in 10.0 mi NW 13.8 mph 20.7 mph N/A   Clear
7:54 PM 12.9 °F 0.7 °F -2.9 °F 49% 30.25 in 10.0 mi WNW 9.2 mph 18.4 mph N/A   Clear
8:54 PM 12.9 °F 2.6 °F -4.0 °F 47% 30.28 in 10.0 mi NW 6.9 mph 16.1 mph N/A   Clear
9:54 PM 12.9 °F -3.4 °F -4.0 °F 47% 30.29 in 10.0 mi NW 16.1 mph 21.9 mph N/A   Clear
10:54 PM 12.9 °F -3.9 °F -4.0 °F 47% 30.31 in 10.0 mi NW 17.3 mph 31.1 mph N/A   Clear
11:54 PM 10.9 °F -2.6 °F -2.9 °F 54% 30.33 in 10.0 mi NW 10.4 mph 19.6 mph N/A   Clear